星链-32148 (STARLINK-32148)

导读 | 星芒AI

STARLINK-32148 是 SpaceX Starlink 卫星互联网项目中的一颗低轨卫星,属于第 6 批次部署的星链卫星群。该卫星于 2023 年发射,运行在约 550 公里的轨道高度,旨在为全球用户提供高速互联网服务。作为 Starlink 计划的一部分,它与其他数千颗卫星协同工作,提升网络覆盖与连接稳定性,尤其服务于偏远地区。该卫星采用可重复使用设计,支持自动避障系统,以确保在轨安全运行。

基本信息
目录编号:
60263
目录名称:
STARLINK-32148
国际标识:
2024-131J
轨道中心:
EARTH
卫星名称:
星链-32148 (STARLINK-32148)
卫星全名:
星链-32148 (STARLINK-32148)
卫星状态:
在轨 (已飞行464 天)
发射日期:
2024-07-27 UTC
国别 :
美国 (US)
星等 :
--
轨道信息
数据来源 国际轨道数据
星历时间: 2025-11-02T11:57:54+0800
1天前
查看轨道信息
半长轴: 6853.459km
偏心率: 0.0001148
轨道倾角: 53.162°
近地点辐角 87.648°
升交点赤经 284.797°
平近点角 272.465°
近地点: 474.537km
远地点: 476.111km
周期: 94.108分钟
每日圈数: 15.301645
详细信息
卫星平台:
Starlink v2.0 mini
运营商:
太空探索技术公司
运营商所在国:
美国
制造商(研发单位):
太空探索技术公司
制造商所在国:
美国
使用方式:
暂无
卫星简介
星链(Starlink)计划是由太空探索技术公司(SpaceX)提出的一个巨型低轨卫星互联网星座项目,计划在2019年至2024年间在太空搭建由约1.2万颗卫星组成的“星链”网络,其中1584颗将部署在地球上空550千米处的近地轨道,并从2020年开始工作。该卫星仍在工作。
2D轨道图
3D轨道图
轨道高度分析图
轨道倾角分析图
轨道综合分析图
查看轨道综合分析图